This demonstration page uses our WeatherBlox Daily Observations layout. Learn more.

Left ArrowRight Arrow

38.88101, -77.10428

Hourly Observations for May 30, 2022

Temp ( °F °C ) Dew Point ( °F °C ) Humidity (%) Winds ( mph kmh ) Pressure ( in mb ) Visibility ( mi km ) Precip ( " mm )
12:52 am 00:52 Partly Cloudy 70 21.1 61 16.1 73 73 S 6 9 30.10 1019 10 16 0.00 0.00
1:52 am 01:52 Mostly Cloudy 69 20.6 61 16.1 76 76 S 6 9 30.10 1019 10 16 0.00 0.00
2:52 am 02:52 Partly Cloudy 69 20.6 61 16.1 76 76 S 6 9 30.10 1019 10 16 0.00 0.00
3:52 am 03:52 Partly Cloudy 68 20 62 16.7 81 81 S 6 9 30.10 1019 10 16 0.00 0.00
4:52 am 04:52 Mostly Clear 68 20 61 16.1 78 78 SSW 3 6 30.11 1020 10 16 0.00 0.00
5:52 am 05:52 Mostly Cloudy 68 20 60 15.6 76 76 Calm 30.13 1020 10 16 0.00 0.00
6:52 am 06:52 Mostly Cloudy 69 20.6 62 16.7 78 78 SSW 5 7 30.14 1021 10 16 0.00 0.00
8:52 am 08:52 Partly Cloudy 73 22.8 64 17.8 74 74 S 8 13 30.15 1021 10 16 0.00 0.00
9:52 am 09:52 Partly Cloudy 77 25 66 18.9 69 69 S 8 13 30.14 1021 10 16 0.00 0.00
10:52 am 10:52 Partly Cloudy 80 26.7 66 18.9 62 62 S 10 17 30.13 1020 10 16 0.00 0.00
11:52 am 11:52 Partly Cloudy 83 28.3 67 19.4 59 59 S 10 17 30.12 1020 10 16 0.00 0.00
12:52 pm 12:52 Partly Cloudy 85 29.4 67 19.4 55 55 S 12 19 30.11 1020 10 16 0.00 0.00
1:52 pm 13:52 Partly Cloudy 86 30 67 19.4 53 53 S 14 22 30.09 1019 10 16 0.00 0.00
2:52 pm 14:52 Partly Cloudy 87 30.6 65 18.3 48 48 S 13 20 30.08 1019 10 16 0.00 0.00
3:52 pm 15:52 Partly Cloudy 87 30.6 64 17.8 46 46 S 13 20 30.06 1018 10 16 0.00 0.00
4:52 pm 16:52 Partly Cloudy 87 30.6 65 18.3 48 48 S 10 17 30.06 1018 10 16 0.00 0.00
5:52 pm 17:52 Mostly Sunny 86 30 65 18.3 49 49 S 13 20 30.06 1018 10 16 0.00 0.00
6:52 pm 18:52 Mostly Sunny 85 29.4 66 18.9 53 53 S 10 17 30.06 1018 10 16 0.00 0.00
7:52 pm 19:52 Sunny 82 27.8 66 18.9 58 58 S 9 15 30.06 1018 10 16 0.00 0.00
8:52 pm 20:52 Clear 80 26.7 67 19.4 64 64 S 8 13 30.06 1018 10 16 0.00 0.00
9:52 pm 21:52 Clear 78 25.6 68 20 71 71 S 9 15 30.08 1019 10 16 0.00 0.00
10:52 pm 22:52 Mostly Clear 77 25 68 20 74 74 S 7 11 30.09 1019 10 16 0.00 0.00
11:52 pm 23:52 Mostly Clear 76 24.4 68 20 77 77 S 8 13 30.09 1019 10 16 0.00 0.00

Powered by AerisWeather